Location: Wien
(48.2082°N, 16.3738°E)
Time: 20:27:39
(UTC+02:00)

NOAA 15 - Visible Passes

Search period start: 22 April 2024 00:00
Search period end: 02 May 2024 00:00
Orbit: 795 x 811 km, 98.6° (Epoch: 22 April)

Date Brightness Start Highest point End Pass type
(mag) Time Alt. Az. Time Alt. Az. Time Alt. Az.
22 Apr 6.2 20:19:26 10° SSW 20:24:20 38° W 20:29:15 10° NNW visible
24 Apr 7.3 21:10:10 10° SW 21:13:14 16° W 21:16:20 10° NW visible
25 Apr 6.9 20:42:57 10° SSW 20:47:15 25° W 20:51:35 10° NW visible
28 Apr 7.3 21:06:59 10° SW 21:10:15 16° W 21:13:31 10° NW visible
29 Apr 6.8 20:39:53 10° SSW 20:44:16 27° W 20:48:41 10° NW visible
